Regional Weather Roundup
Issued by NWS Newport/Morehead, NC

Current Version | Previous Version | Text Only | Print | Product List | Glossary Off
Versions: 1 2 3 4 5 6 7 8 9 10 11 12 13 14 15 16 17 18 19 20 21 22 23 24 25 26 27 28 29 30 31 32 33 34 35 36 37 38 39 40 41 42 43 44 45 46 47 48 49 50
000 ASUS42 KMHX 211714 RWRMHX WEATHER ROUNDUP FOR EASTERN NORTH CAROLINA NATIONAL WEATHER SERVICE NEWPORT/MOREHEAD CITY NC 100 PM EDT MON AUG 21 2017 NOTE: "FAIR" INDICATES FEW OR NO CLOUDS BELOW 12,000 FEET WITH NO SIGNIFICANT WEATHER AND/OR OBSTRUCTIONS TO VISIBILITY NCZ015>017-031-032-045>047-102-103-211800- NORTH COAST CITY SKY/WX TMP DP RH WIND PRES REMARKS EDENTON MOSUNNY 88 76 67 CALM 30.23S ELIZABETH CITY MOSUNNY 87 73 62 SE7 30.22F KITTY HAWK SUNNY 83 74 75 CALM 30.22F MANTEO SUNNY 85 76 74 E7 30.23F $$ NCZ045>047-081-094-103-104-211800- CENTRAL COAST CITY SKY/WX TMP DP RH WIND PRES REMARKS FRISCO MOSUNNY 89 79 72 SE12 30.22S HX 104 $$ NCZ095-097-098-100-101-211800- SOUTHERN COAST CITY SKY/WX TMP DP RH WIND PRES REMARKS BEAUFORT LGT RAIN 80 77 90 S9 30.22S CEDAR ISLAND NOT AVBL JACKSONVILLE PTSUNNY 88 77 69 E9 30.20F HX 100 PINEY ISLAND MOSUNNY N/A N/A N/A E10 30.21F WILMINGTON CLOUDY 87 75 67 E10 30.20F $$ NCZ011>013-027>030-043-044-078>080-089-090>093-098-211800- COASTAL PLAIN CITY SKY/WX TMP DP RH WIND PRES REMARKS AHOSKIE N/A 84 74 71 S5 30.22F CLINTON SUNNY 88 73 60 CALM 30.21F ELIZABETHTOWN NOT AVBL GOLDSBORO NOT AVBL GREENVILLE MOSUNNY 88 73 62 E3 30.23S HAVELOCK PTSUNNY 86 75 69 E8 30.22F KENANSVILLE MOSUNNY 86 73 66 SE3 30.21F KINSTON MOSUNNY 90 72 55 E8 30.22F NEW BERN CLOUDY 86 76 71 E7 30.22F RICHLANDS MOSUNNY 87 76 69 E8 30.21F ROCKY MOUNT MOSUNNY 88 74 63 VRB5 30.22F WASHINGTON MOSUNNY 88 73 62 SE6 30.22F WHITEVILLE MOSUNNY 88 75 66 NE8 30.19F $$ AMZ130-135-150-152-154-156-158-170-250-252-270-ANZ085-086-088-633-658-670-211800- MARINE OBSERVATIONS STATION/POSITION TIME TEMP WIND PRES WAVE SWELL AIR SEA DIR/SP/G HT/PER HT/PER (UTC) (F) (DEG/KT/KT) (MB) (FT/S) (FT/S) CHESAPEAKE LIGHT NOT AVBL 64 E VA BEACH 1650 79 79 120/ 6/ 8 1024.5 2/ 9 2/ 9 DUCK 1648 83 81 110/ 6/ 6 1023.5 2 E DUCK 1630 81 N/A 2/10 OREGON INLET 1642 81 76 50/ 5/ 7 1023.7 13E OREGON INLT 1648 81 N/A 2/ 8 2/ 8 HATTERAS CG 1648 84 79 110/ 8/ 11 1023.4 DIAMOND BUOY 1650 83 85 120/ 12/ 14 1023.0 2/ 8 2/ 8 CAPE LOOKOUT 1700 79 210/ 6/ 8 1022.8 BEAUFORT LAB 1648 80 81 170/ 13/ 19 1022.7 30 SE NEW RVR IN 1608 78 84 90/ 6/ 8 1023.1 30 SE NEW RVR IN 1643 83 N/A 2/ 8 27 SE WRIGHTSVLE 1608 81 84 100/ 10/ 16 1022.6 5 SE WRIGHTSVLE 1608 82 83 100/ 8/ 16 1022.7 225 S CAPE HAT 1650 83 85 120/ 6/ 8 1022.8 3/ 8 3/ 8 41 SE CHARLESTON 1650 83 85 130/ 6/ 8 1021.4 3/ 8 2/ 8 $$

USA.gov is the U.S. government's official web portal to all federal, state and local government web resources and services.